When you browse on this site, cookies collect data to enhance your experience and personalize the content and advertising you see.
Visit our Privacy Policy to learn more. By continuing to use the site, you agree to this use of cookies and data.
  • Em Portugal
  • Lista de países
  • Para 7 dias
  • Temperatura da água
  • Mapa do tempo
  • Widgets de tempo
  • user-avatar
    Iniciar Sessão

    Previsão horária em Ottal

    Hoje, 21 Agosto, Quarta-feira

    Tempo Temperatura Precipitação Vento Pressão Humidade
    00:00 +13°C° 0 mm 1 m/s 597 mmHg 60%
    01:00 +13°C° 0 mm 1 m/s 597 mmHg 61%
    02:00 +12°C° 0 mm 1 m/s 597 mmHg 61%
    03:00 +12°C° 0 mm 1 m/s 597 mmHg 61%
    04:00 +13°C° 0 mm 1 m/s 597 mmHg 60%
    05:00 +13°C° 0 mm 1 m/s 597 mmHg 58%
    06:00 +14°C° 0 mm 1 m/s 598 mmHg 57%
    07:00 +16°C° 0 mm 1 m/s 599 mmHg 50%
    08:00 +20°C° 0 mm 1 m/s 600 mmHg 44%
    09:00 +21°C° 0 mm 2 m/s 601 mmHg 37%
    10:00 +23°C° 0 mm 2 m/s 601 mmHg 37%
    11:00 +24°C° 0 mm 2 m/s 601 mmHg 36%
    12:00 +24°C° 0 mm 2 m/s 601 mmHg 36%
    13:00 +24°C° 0 mm 2 m/s 600 mmHg 37%
    14:00 +24°C° 0 mm 2 m/s 600 mmHg 38%
    15:00 +24°C° 0 mm 2 m/s 600 mmHg 38%
    16:00 +23°C° 0 mm 2 m/s 599 mmHg 43%
    17:00 +22°C° 0 mm 1 m/s 598 mmHg 48%
    18:00 +21°C° 0 mm 1 m/s 598 mmHg 53%
    19:00 +19°C° 0 mm 1 m/s 597 mmHg 55%
    20:00 +16°C° 0 mm 1 m/s 596 mmHg 57%
    21:00 +14°C° 0 mm 1 m/s 596 mmHg 59%
    22:00 +14°C° 0 mm 1 m/s 595 mmHg 60%
    23:00 +14°C° 0 mm 1 m/s 595 mmHg 61%

    Amanhã, 22 Agosto, Quinta-feira

    Tempo Temperatura Precipitação Vento Pressão Humidade
    00:00 +13°C° 0 mm 1 m/s 595 mmHg 61%
    01:00 +13°C° 0 mm 1 m/s 595 mmHg 62%
    02:00 +13°C° 0 mm 1 m/s 595 mmHg 62%
    03:00 +12°C° 0 mm 1 m/s 595 mmHg 62%
    04:00 +13°C° 0 mm 1 m/s 595 mmHg 61%
    05:00 +14°C° 0 mm 1 m/s 595 mmHg 61%
    06:00 +14°C° 0 mm 1 m/s 595 mmHg 60%
    07:00 +18°C° 0 mm 1 m/s 596 mmHg 52%
    08:00 +20°C° 0 mm 1 m/s 597 mmHg 45%
    09:00 +21°C° 0 mm 2 m/s 598 mmHg 38%
    10:00 +23°C° 0 mm 2 m/s 598 mmHg 37%
    11:00 +24°C° 0 mm 2 m/s 599 mmHg 37%
    12:00 +24°C° 0 mm 3 m/s 599 mmHg 36%
    13:00 +24°C° 0.1 mm 3 m/s 598 mmHg 36%
    14:00 +24°C° 0.1 mm 2 m/s 598 mmHg 36%
    15:00 +24°C° 0.1 mm 2 m/s 598 mmHg 36%
    16:00 +23°C° 0 mm 2 m/s 597 mmHg 41%
    17:00 +22°C° 0 mm 1 m/s 597 mmHg 46%
    18:00 +21°C° 0 mm 1 m/s 596 mmHg 50%
    19:00 +19°C° 0 mm 1 m/s 596 mmHg 51%
    20:00 +16°C° 0 mm 1 m/s 595 mmHg 52%
    21:00 +15°C° 0 mm 1 m/s 595 mmHg 52%
    22:00 +14°C° 0 mm 1 m/s 595 mmHg 55%
    23:00 +14°C° 0 mm 1 m/s 595 mmHg 58%

    Depois de amanhã, 23 Agosto, Sexta-feira

    Tempo Temperatura Precipitação Vento Pressão Humidade
    00:00 +13°C° 0 mm 1 m/s 595 mmHg 60%
    01:00 +13°C° 0 mm 1 m/s 595 mmHg 60%
    02:00 +13°C° 0 mm 1 m/s 595 mmHg 60%
    03:00 +13°C° 0 mm 1 m/s 595 mmHg 60%
    04:00 +13°C° 0 mm 1 m/s 595 mmHg 59%
    05:00 +14°C° 0 mm 1 m/s 595 mmHg 59%
    06:00 +14°C° 0 mm 1 m/s 595 mmHg 58%
    07:00 +16°C° 0 mm 1 m/s 596 mmHg 51%
    08:00 +20°C° 0 mm 1 m/s 597 mmHg 44%
    09:00 +21°C° 0 mm 2 m/s 599 mmHg 36%
    10:00 +23°C° 0 mm 2 m/s 599 mmHg 35%
    11:00 +24°C° 0 mm 3 m/s 599 mmHg 34%
    12:00 +24°C° 0 mm 3 m/s 599 mmHg 33%
    13:00 +25°C° 0 mm 3 m/s 599 mmHg 33%
    14:00 +25°C° 0 mm 3 m/s 599 mmHg 33%
    15:00 +25°C° 0 mm 3 m/s 599 mmHg 33%
    16:00 +24°C° 0 mm 2 m/s 598 mmHg 38%
    17:00 +21°C° 0 mm 2 m/s 597 mmHg 44%
    18:00 +21°C° 0 mm 1 m/s 597 mmHg 49%
    19:00 +19°C° 0 mm 1 m/s 596 mmHg 51%
    20:00 +16°C° 0 mm 1 m/s 596 mmHg 52%
    21:00 +15°C° 0 mm 1 m/s 596 mmHg 54%
    22:00 +14°C° 0 mm 1 m/s 596 mmHg 55%
    23:00 +14°C° 0 mm 1 m/s 595 mmHg 55%

    24 Agosto, Sábado

    Tempo Temperatura Precipitação Vento Pressão Humidade
    00:00 +14°C° 0 mm 2 m/s 595 mmHg 56%
    01:00 +14°C° 0 mm 2 m/s 595 mmHg 57%
    02:00 +13°C° 0 mm 1 m/s 595 mmHg 58%
    03:00 +13°C° 0 mm 1 m/s 595 mmHg 59%
    04:00 +14°C° 0 mm 1 m/s 595 mmHg 56%
    05:00 +14°C° 0 mm 1 m/s 595 mmHg 54%
    06:00 +15°C° 0 mm 1 m/s 596 mmHg 52%
    07:00 +18°C° 0 mm 1 m/s 597 mmHg 45%
    08:00 +19°C° 0 mm 2 m/s 598 mmHg 39%
    09:00 +21°C° 0 mm 2 m/s 599 mmHg 32%
    10:00 +23°C° 0 mm 2 m/s 599 mmHg 33%
    11:00 +24°C° 0 mm 3 m/s 599 mmHg 33%
    12:00 +24°C° 0 mm 3 m/s 600 mmHg 33%
    13:00 +24°C° 0.1 mm 3 m/s 599 mmHg 33%
    14:00 +24°C° 0.1 mm 3 m/s 599 mmHg 34%
    15:00 +24°C° 0.1 mm 3 m/s 599 mmHg 34%
    16:00 +23°C° 0.1 mm 2 m/s 598 mmHg 40%
    17:00 +20°C° 0.1 mm 2 m/s 598 mmHg 47%
    18:00 +20°C° 0.1 mm 1 m/s 598 mmHg 53%
    19:00 +19°C° 0 mm 1 m/s 597 mmHg 55%
    20:00 +16°C° 0 mm 1 m/s 597 mmHg 56%
    21:00 +14°C° 0 mm 1 m/s 597 mmHg 58%
    22:00 +14°C° 0 mm 1 m/s 597 mmHg 58%
    23:00 +14°C° 0 mm 1 m/s 597 mmHg 58%

    25 Agosto, Domingo

    Tempo Temperatura Precipitação Vento Pressão Humidade
    00:00 +14°C° 0 mm 1 m/s 597 mmHg 58%
    01:00 +14°C° 0.1 mm 1 m/s 597 mmHg 60%
    02:00 +14°C° 0.1 mm 1 m/s 597 mmHg 61%
    03:00 +14°C° 0.1 mm 2 m/s 597 mmHg 63%
    04:00 +14°C° 0 mm 1 m/s 597 mmHg 64%
    05:00 +14°C° 0 mm 1 m/s 597 mmHg 65%
    06:00 +14°C° 0 mm 1 m/s 597 mmHg 67%
    07:00 +16°C° 0 mm 1 m/s 598 mmHg 61%
    08:00 +17°C° 0 mm 2 m/s 598 mmHg 55%
    09:00 +19°C° 0 mm 2 m/s 599 mmHg 50%
    10:00 +19°C° 0.3 mm 2 m/s 599 mmHg 47%
    11:00 +20°C° 0.3 mm 3 m/s 599 mmHg 44%
    12:00 +21°C° 0.3 mm 3 m/s 599 mmHg 42%
    13:00 +21°C° 0.1 mm 3 m/s 599 mmHg 40%
    14:00 +21°C° 0.1 mm 3 m/s 599 mmHg 39%
    15:00 +21°C° 0.1 mm 2 m/s 599 mmHg 37%
    16:00 +20°C° 0 mm 2 m/s 598 mmHg 41%
    17:00 +20°C° 0 mm 1 m/s 598 mmHg 45%
    18:00 +19°C° 0 mm 1 m/s 597 mmHg 50%
    19:00 +16°C° 0 mm 1 m/s 597 mmHg 50%
    20:00 +15°C° 0 mm 1 m/s 596 mmHg 51%
    21:00 +13°C° 0 mm 1 m/s 596 mmHg 51%
    22:00 +12°C° 0 mm 1 m/s 596 mmHg 51%
    23:00 +12°C° 0 mm 1 m/s 595 mmHg 52%

    26 Agosto, Segunda-feira

    Tempo Temperatura Precipitação Vento Pressão Humidade
    00:00 +12°C° 0 mm 1 m/s 595 mmHg 52%
    01:00 +12°C° 0 mm 1 m/s 595 mmHg 50%
    02:00 +12°C° 0 mm 1 m/s 595 mmHg 49%
    03:00 +12°C° 0 mm 1 m/s 595 mmHg 48%
    04:00 +12°C° 0 mm 1 m/s 595 mmHg 50%
    05:00 +12°C° 0 mm 1 m/s 596 mmHg 53%
    06:00 +13°C° 0 mm 1 m/s 596 mmHg 55%
    07:00 +15°C° 0 mm 1 m/s 597 mmHg 50%
    08:00 +18°C° 0 mm 1 m/s 598 mmHg 45%
    09:00 +19°C° 0 mm 2 m/s 599 mmHg 39%
    10:00 +20°C° 0.1 mm 2 m/s 599 mmHg 39%
    11:00 +21°C° 0.1 mm 2 m/s 599 mmHg 39%
    12:00 +21°C° 0.1 mm 2 m/s 600 mmHg 39%
    13:00 +21°C° 0.3 mm 2 m/s 599 mmHg 40%
    14:00 +21°C° 0.3 mm 2 m/s 599 mmHg 42%
    15:00 +21°C° 0.3 mm 2 m/s 599 mmHg 44%
    16:00 +20°C° 0.3 mm 1 m/s 599 mmHg 51%
    17:00 +19°C° 0.3 mm 1 m/s 598 mmHg 57%
    18:00 +18°C° 0.3 mm 1 m/s 598 mmHg 64%
    19:00 +16°C° 0.2 mm 1 m/s 598 mmHg 66%
    20:00 +14°C° 0.2 mm 1 m/s 598 mmHg 69%
    21:00 +13°C° 0.2 mm 1 m/s 598 mmHg 71%
    22:00 +13°C° 0 mm 1 m/s 598 mmHg 71%
    23:00 +13°C° 0 mm 1 m/s 598 mmHg 70%
    Mostrar mais